| time (UTC) | temp C | wind direction | speed KPH | gust KPH | rain 1hr cm | rain 24hr cm | rain mn cm | humidity % | barometer mb |
| 20260508100521 | 10 | 156 | 0.0 | 6.4 | 0.00 | 0.00 | 0.00 | 69 | 1014.2 |
| 20260508095521 | 10 | 175 | 0.0 | 3.2 | 0.00 | 0.00 | 0.00 | 68 | 1014.2 |
| 20260508094520 | 10 | 175 | 0.0 | 3.2 | 0.00 | 0.00 | 0.00 | 68 | 1014.2 |
| 20260508093521 | 10 | 175 | 0.0 | 3.2 | 0.00 | 0.00 | 0.00 | 69 | 1014.1 |
| 20260508092521 | 10 | 175 | 0.0 | 3.2 | 0.00 | 0.00 | 0.00 | 69 | 1014.1 |
| 20260508091521 | 10 | 178 | 1.6 | 8.0 | 0.00 | 0.00 | 0.00 | 68 | 1014.2 |
| 20260508090536 | 10 | 167 | 0.0 | 4.8 | 0.00 | 0.00 | 0.00 | 69 | 1014.1 |
| 20260508085521 | 10 | 167 | 0.0 | 3.2 | 0.00 | 0.00 | 0.00 | 70 | 1014.1 |
| 20260508084520 | 10 | 167 | 0.0 | 3.2 | 0.00 | 0.00 | 0.00 | 71 | 1014.3 |
| 20260508083520 | 10 | 0.0 | 0.0 | 0.00 | 0.00 | 0.00 | 70 | 1014.2 | |
| 20260508082520 | 10 | 167 | 0.0 | 3.2 | 0.00 | 0.00 | 0.00 | 70 | 1014.3 |
| 20260508081520 | 10 | 167 | 0.0 | 3.2 | 0.00 | 0.00 | 0.00 | 70 | 1014.4 |
| 20260508080515 | 10 | 0.0 | 3.2 | 0.00 | 0.00 | 0.00 | 71 | 1014.4 | |
| 20260508075515 | 10 | 167 | 0.0 | 3.2 | 0.00 | 0.00 | 0.00 | 71 | 1014.5 |
| 20260508074520 | 10 | 0.0 | 3.2 | 0.00 | 0.00 | 0.00 | 72 | 1014.5 | |
| 20260508073520 | 10 | 0.0 | 0.0 | 0.00 | 0.00 | 0.00 | 73 | 1014.6 | |
| 20260508072520 | 10 | 0.0 | 0.0 | 0.00 | 0.00 | 0.00 | 73 | 1014.7 | |
| 20260508071521 | 10 | 0.0 | 0.0 | 0.00 | 0.00 | 0.00 | 74 | 1014.8 | |
| 20260508070520 | 9 | 0.0 | 1.6 | 0.00 | 0.00 | 0.00 | 77 | 1014.9 | |
| 20260508065515 | 10 | 167 | 0.0 | 3.2 | 0.00 | 0.00 | 0.00 | 75 | 1014.9 |
| 20260508064515 | 10 | 0.0 | 0.0 | 0.00 | 0.00 | 0.00 | 71 | 1015.0 | |
| 20260508063521 | 10 | 0.0 | 1.6 | 0.00 | 0.00 | 0.00 | 70 | 1015.0 | |
| 20260508062520 | 10 | 167 | 0.0 | 3.2 | 0.00 | 0.00 | 0.00 | 69 | 1015.1 |
| 20260508061520 | 10 | 167 | 0.0 | 3.2 | 0.00 | 0.00 | 0.00 | 69 | 1015.3 |
| 20260508060518 | 11 | 0.0 | 3.2 | 0.00 | 0.00 | 0.00 | 67 | 1015.2 | |
| 20260508055520 | 11 | 165 | 0.0 | 3.2 | 0.00 | 0.00 | 0.00 | 67 | 1015.2 |
| 20260508054515 | 11 | 169 | 0.0 | 3.2 | 0.00 | 0.00 | 0.00 | 67 | 1015.1 |
| 20260508053520 | 11 | 169 | 0.0 | 3.2 | 0.00 | 0.00 | 0.00 | 66 | 1015.0 |
| 20260508052520 | 11 | 169 | 0.0 | 3.2 | 0.00 | 0.00 | 0.00 | 67 | 1015.1 |
| 20260508051521 | 11 | 169 | 0.0 | 3.2 | 0.00 | 0.00 | 0.00 | 65 | 1015.0 |
| 20260508050520 | 11 | 169 | 0.0 | 4.8 | 0.00 | 0.00 | 0.00 | 65 | 1015.1 |
| 20260508045521 | 11 | 186 | 0.0 | 3.2 | 0.00 | 0.00 | 0.00 | 65 | 1015.1 |
| 20260508044541 | 11 | 188 | 0.0 | 3.2 | 0.00 | 0.00 | 0.00 | 64 | 1015.3 |
| 20260508043521 | 12 | 187 | 0.0 | 4.8 | 0.00 | 0.00 | 0.00 | 63 | 1015.3 |
| 20260508042522 | 12 | 187 | 0.0 | 4.8 | 0.00 | 0.00 | 0.00 | 63 | 1015.4 |
| 20260508041516 | 12 | 191 | 0.0 | 6.4 | 0.00 | 0.00 | 0.00 | 61 | 1015.4 |
| 20260508040521 | 12 | 191 | 1.6 | 8.0 | 0.00 | 0.00 | 0.00 | 62 | 1015.4 |
| 20260508035521 | 12 | 194 | 0.0 | 4.8 | 0.00 | 0.00 | 0.00 | 62 | 1015.2 |
| 20260508034541 | 12 | 197 | 0.0 | 3.2 | 0.00 | 0.00 | 0.00 | 62 | 1015.1 |
| 20260508033541 | 12 | 197 | 0.0 | 3.2 | 0.00 | 0.00 | 0.00 | 64 | 1015.1 |
| 20260508032522 | 12 | 197 | 0.0 | 3.2 | 0.00 | 0.00 | 0.00 | 65 | 1015.0 |
| 20260508031516 | 12 | 197 | 0.0 | 3.2 | 0.00 | 0.00 | 0.00 | 66 | 1014.9 |
| 20260508030536 | 12 | 197 | 0.0 | 3.2 | 0.00 | 0.00 | 0.00 | 63 | 1014.9 |
| 20260508025521 | 12 | 196 | 0.0 | 3.2 | 0.00 | 0.00 | 0.00 | 62 | 1014.8 |
| 20260508024521 | 13 | 0.0 | 3.2 | 0.00 | 0.00 | 0.00 | 61 | 1014.8 | |
| 20260508023521 | 13 | 197 | 0.0 | 3.2 | 0.00 | 0.00 | 0.00 | 59 | 1014.8 |
| 20260508022540 | 13 | 197 | 0.0 | 4.8 | 0.00 | 0.00 | 0.00 | 61 | 1014.7 |
| 20260508021522 | 13 | 198 | 0.0 | 3.2 | 0.00 | 0.00 | 0.00 | 63 | 1014.6 |
| 20260508020516 | 13 | 198 | 0.0 | 6.4 | 0.00 | 0.00 | 0.00 | 61 | 1014.6 |
| 20260508015521 | 13 | 200 | 0.0 | 4.8 | 0.00 | 0.00 | 0.00 | 62 | 1014.4 |
| 20260508014521 | 13 | 200 | 0.0 | 3.2 | 0.00 | 0.00 | 0.00 | 61 | 1014.3 |
| 20260508013521 | 13 | 0.0 | 0.0 | 0.00 | 0.00 | 0.00 | 64 | 1014.1 | |
| 20260508012521 | 13 | 0.0 | 0.0 | 0.00 | 0.00 | 0.00 | 66 | 1014.1 | |
| 20260508011521 | 13 | 0.0 | 0.0 | 0.00 | 0.00 | 0.00 | 70 | 1014.0 | |
| 20260508010521 | 13 | 0.0 | 0.0 | 0.00 | 0.00 | 0.00 | 72 | 1013.9 | |
| 20260508005516 | 13 | 0.0 | 0.0 | 0.00 | 0.00 | 0.00 | 65 | 1013.8 | |
| 20260508004541 | 15 | 0.0 | 0.0 | 0.00 | 0.00 | 0.00 | 62 | 1013.8 | |
| 20260508003521 | 15 | 200 | 0.0 | 1.6 | 0.00 | 0.00 | 0.00 | 62 | 1013.7 |
| 20260508002521 | 16 | 0.0 | 0.0 | 0.00 | 0.00 | 0.00 | 54 | 1013.6 | |
| 20260508001521 | 16 | 200 | 0.0 | 3.2 | 0.00 | 0.00 | 0.00 | 54 | 1013.6 |
| 20260508000521 | 16 | 199 | 0.0 | 3.2 | 0.00 | 0.00 | 0.00 | 53 | 1013.6 |
| 20260507235516 | 17 | 199 | 0.0 | 3.2 | 0.00 | 0.00 | 0.00 | 48 | 1013.6 |
| 20260507234521 | 17 | 0.0 | 0.0 | 0.00 | 0.00 | 0.00 | 43 | 1013.7 | |
| 20260507233521 | 17 | 0.0 | 3.2 | 0.00 | 0.00 | 0.00 | 42 | 1013.7 | |
| 20260507232521 | 17 | 199 | 0.0 | 3.2 | 0.00 | 0.00 | 0.00 | 44 | 1014.0 |
| 20260507231521 | 17 | 200 | 0.0 | 3.2 | 0.00 | 0.00 | 0.00 | 44 | 1014.1 |
| 20260507230521 | 18 | 199 | 1.6 | 4.8 | 0.00 | 0.00 | 0.00 | 36 | 1014.1 |
| 20260507225521 | 18 | 199 | 0.0 | 8.0 | 0.00 | 0.00 | 0.00 | 36 | 1014.2 |
| 20260507224516 | 18 | 200 | 0.0 | 9.7 | 0.00 | 0.00 | 0.00 | 36 | 1014.2 |
| 20260507223521 | 18 | 226 | 1.6 | 6.4 | 0.00 | 0.00 | 0.00 | 37 | 1014.3 |
| 20260507222521 | 18 | 233 | 0.0 | 4.8 | 0.00 | 0.00 | 0.00 | 38 | 1014.3 |
| 20260507221541 | 18 | 234 | 0.0 | 3.2 | 0.00 | 0.00 | 0.00 | 37 | 1014.5 |
| 20260507220521 | 18 | 233 | 1.6 | 6.4 | 0.00 | 0.00 | 0.00 | 36 | 1014.6 |
| 20260507215521 | 18 | 237 | 0.0 | 8.0 | 0.00 | 0.00 | 0.00 | 38 | 1014.6 |
| 20260507214516 | 18 | 199 | 0.0 | 6.4 | 0.00 | 0.00 | 0.00 | 37 | 1014.6 |
| 20260507213516 | 18 | 211 | 1.6 | 6.4 | 0.00 | 0.00 | 0.00 | 41 | 1014.7 |
| 20260507212521 | 18 | 250 | 1.6 | 14.5 | 0.00 | 0.00 | 0.00 | 35 | 1014.8 |
| 20260507211521 | 18 | 273 | 1.6 | 6.4 | 0.00 | 0.00 | 0.00 | 35 | 1014.9 |
| 20260507210521 | 18 | 259 | 3.2 | 11.3 | 0.00 | 0.00 | 0.00 | 40 | 1015.0 |
| 20260507205521 | 18 | 270 | 3.2 | 9.7 | 0.00 | 0.00 | 0.00 | 42 | 1014.9 |
| 20260507204521 | 18 | 269 | 3.2 | 16.1 | 0.00 | 0.00 | 0.00 | 39 | 1014.9 |
| 20260507203516 | 18 | 272 | 4.8 | 12.9 | 0.00 | 0.00 | 0.00 | 41 | 1015.0 |
| 20260507202521 | 18 | 270 | 3.2 | 11.3 | 0.00 | 0.00 | 0.00 | 39 | 1015.1 |
| 20260507201542 | 17 | 249 | 0.0 | 8.0 | 0.00 | 0.00 | 0.00 | 37 | 1015.3 |
| 20260507200521 | 18 | 223 | 1.6 | 6.4 | 0.00 | 0.00 | 0.00 | 39 | 1015.4 |
| 20260507195521 | 18 | 229 | 1.6 | 8.0 | 0.00 | 0.00 | 0.00 | 35 | 1015.7 |
| 20260507194521 | 18 | 273 | 3.2 | 9.7 | 0.00 | 0.00 | 0.00 | 43 | 1015.8 |
| 20260507193516 | 18 | 282 | 1.6 | 4.8 | 0.00 | 0.00 | 0.00 | 37 | 1015.8 |
| 20260507192516 | 18 | 287 | 0.0 | 9.7 | 0.00 | 0.00 | 0.00 | 36 | 1015.9 |
| 20260507191521 | 18 | 264 | 3.2 | 6.4 | 0.00 | 0.00 | 0.00 | 46 | 1016.0 |
| 20260507190521 | 17 | 265 | 0.0 | 6.4 | 0.00 | 0.00 | 0.00 | 41 | 1016.0 |
| 20260507185521 | 17 | 262 | 3.2 | 12.9 | 0.00 | 0.00 | 0.00 | 37 | 1016.1 |
| 20260507184521 | 17 | 245 | 3.2 | 9.7 | 0.00 | 0.00 | 0.00 | 43 | 1016.3 |
| 20260507183521 | 17 | 211 | 1.6 | 8.0 | 0.00 | 0.00 | 0.00 | 41 | 1016.3 |
| 20260507182536 | 17 | 307 | 0.0 | 6.4 | 0.00 | 0.00 | 0.00 | 40 | 1016.2 |
| 20260507181521 | 16 | 277 | 3.2 | 16.1 | 0.00 | 0.00 | 0.00 | 38 | 1016.4 |
| 20260507180521 | 17 | 260 | 3.2 | 12.9 | 0.00 | 0.00 | 0.00 | 40 | 1016.5 |
| 20260507175541 | 17 | 266 | 1.6 | 9.7 | 0.00 | 0.00 | 0.00 | 44 | 1016.6 |
| 20260507174521 | 16 | 261 | 1.6 | 6.4 | 0.00 | 0.00 | 0.00 | 40 | 1016.8 |
| 20260507173521 | 16 | 267 | 0.0 | 8.0 | 0.00 | 0.00 | 0.00 | 39 | 1016.9 |
| 20260507172522 | 16 | 273 | 4.8 | 11.3 | 0.00 | 0.00 | 0.00 | 42 | 1017.1 |
| 20260507171517 | 16 | 280 | 3.2 | 11.3 | 0.00 | 0.00 | 0.00 | 41 | 1017.1 |
| 20260507170541 | 16 | 267 | 1.6 | 12.9 | 0.00 | 0.00 | 0.00 | 49 | 1017.3 |
| 20260507165541 | 16 | 259 | 3.2 | 9.7 | 0.00 | 0.00 | 0.00 | 39 | 1017.3 |
| 20260507164521 | 16 | 270 | 1.6 | 8.0 | 0.00 | 0.00 | 0.00 | 48 | 1017.4 |
| 20260507163521 | 16 | 269 | 1.6 | 9.7 | 0.00 | 0.00 | 0.00 | 46 | 1017.5 |
| 20260507162521 | 15 | 259 | 1.6 | 9.7 | 0.00 | 0.00 | 0.00 | 37 | 1017.6 |
| 20260507161516 | 15 | 280 | 1.6 | 8.0 | 0.00 | 0.00 | 0.00 | 44 | 1017.6 |
| 20260507160539 | 15 | 273 | 1.6 | 8.0 | 0.00 | 0.00 | 0.00 | 42 | 1017.5 |
| 20260507155521 | 15 | 266 | 1.6 | 8.0 | 0.00 | 0.00 | 0.00 | 40 | 1017.6 |
| 20260507154521 | 15 | 243 | 1.6 | 8.0 | 0.00 | 0.00 | 0.00 | 43 | 1017.7 |
| 20260507153541 | 15 | 112 | 0.0 | 6.4 | 0.00 | 0.00 | 0.00 | 44 | 1017.8 |
| 20260507152519 | 15 | 164 | 1.6 | 4.8 | 0.00 | 0.00 | 0.00 | 47 | 1017.9 |
| 20260507151541 | 13 | 132 | 1.6 | 6.4 | 0.00 | 0.00 | 0.00 | 44 | 1017.9 |
| 20260507150515 | 13 | 127 | 0.0 | 3.2 | 0.00 | 0.00 | 0.00 | 44 | 1017.9 |
| 20260507145521 | 13 | 108 | 1.6 | 4.8 | 0.00 | 0.00 | 0.00 | 50 | 1017.9 |
| 20260507144521 | 12 | 76 | 0.0 | 4.8 | 0.00 | 0.00 | 0.00 | 60 | 1017.9 |
| 20260507143521 | 12 | 63 | 0.0 | 4.8 | 0.00 | 0.00 | 0.00 | 61 | 1018.0 |
| 20260507142520 | 12 | 61 | 0.0 | 4.8 | 0.00 | 0.00 | 0.00 | 62 | 1018.1 |
| 20260507141521 | 11 | 54 | 0.0 | 4.8 | 0.00 | 0.00 | 0.00 | 63 | 1018.0 |
| 20260507140516 | 11 | 53 | 0.0 | 1.6 | 0.00 | 0.00 | 0.00 | 65 | 1017.9 |
| 20260507135515 | 11 | 53 | 0.0 | 3.2 | 0.00 | 0.00 | 0.00 | 67 | 1017.8 |
| 20260507134521 | 10 | 44 | 0.0 | 3.2 | 0.00 | 0.00 | 0.00 | 70 | 1017.9 |
| 20260507133521 | 10 | 44 | 0.0 | 3.2 | 0.00 | 0.00 | 0.00 | 71 | 1017.9 |
| 20260507132521 | 10 | 44 | 0.0 | 1.6 | 0.00 | 0.00 | 0.00 | 74 | 1017.9 |
| 20260507131521 | 9 | 0.0 | 3.2 | 0.00 | 0.00 | 0.00 | 78 | 1017.9 | |
| 20260507130521 | 8 | 0.0 | 0.0 | 0.00 | 0.00 | 0.00 | 84 | 1018.0 | |
| 20260507125536 | 8 | 0.0 | 0.0 | 0.00 | 0.00 | 0.00 | 88 | 1017.8 | |
| 20260507124516 | 7 | 44 | 0.0 | 3.2 | 0.00 | 0.00 | 0.00 | 92 | 1017.6 |
| 20260507123521 | 7 | 0.0 | 0.0 | 0.00 | 0.00 | 0.00 | 92 | 1017.6 | |
| 20260507122521 | 6 | 0.0 | 0.0 | 0.00 | 0.00 | 0.00 | 92 | 1017.6 | |
| 20260507121521 | 6 | 0.0 | 0.0 | 0.00 | 0.00 | 0.00 | 92 | 1017.5 | |
| 20260507120521 | 5 | 0.0 | 0.0 | 0.00 | 0.00 | 0.00 | 92 | 1017.5 | |
| 20260507115541 | 5 | 0.0 | 0.0 | 0.00 | 0.00 | 0.00 | 92 | 1017.5 | |
| 20260507114515 | 5 | 0.0 | 0.0 | 0.00 | 0.00 | 0.00 | 92 | 1017.4 | |
| 20260507113521 | 5 | 0.0 | 0.0 | 0.00 | 0.00 | 0.00 | 92 | 1017.3 | |
| 20260507112521 | 5 | 0.0 | 0.0 | 0.00 | 0.00 | 0.00 | 92 | 1017.2 | |
| 20260507111521 | 5 | 0.0 | 0.0 | 0.00 | 0.00 | 0.00 | 92 | 1017.1 | |
| 20260507110522 | 5 | 0.0 | 0.0 | 0.00 | 0.00 | 0.00 | 91 | 1017.0 | |
| 20260507105541 | 5 | 0.0 | 0.0 | 0.00 | 0.00 | 0.00 | 91 | 1016.9 | |
| 20260507104521 | 5 | 0.0 | 0.0 | 0.00 | 0.00 | 0.00 | 91 | 1016.9 | |
| 20260507103516 | 5 | 0.0 | 0.0 | 0.00 | 0.00 | 0.00 | 91 | 1016.9 | |
| 20260507102521 | 5 | 0.0 | 0.0 | 0.00 | 0.00 | 0.00 | 91 | 1017.0 | |
| 20260507101521 | 5 | 0.0 | 0.0 | 0.00 | 0.00 | 0.00 | 90 | 1017.1 |